Location: Wallasey
(53.4265°N, 3.0662°W)
Time: 10:18:41
(UTC+01:00)

Max Valier Satellite - Visible Passes

Search period start: 22 August 2019 00:00
Search period end: 01 September 2019 00:00
Orbit: 491 x 508 km, 97.3° (Epoch: 21 August)

Date Brightness Start Highest point End Pass type
(mag) Time Alt. Az. Time Alt. Az. Time Alt. Az.
22 Aug ? 22:14:02 13° S 22:17:05 49° W 22:20:40 10° NNW visible
23 Aug ? 21:54:08 14° SSE 21:57:14 82° WSW 22:00:57 10° NNW visible
24 Aug ? 21:34:15 13° SSE 21:37:28 61° ENE 21:41:07 10° N visible
24 Aug ? 23:09:30 10° SW 23:11:36 15° W 23:13:44 10° NW visible
25 Aug ? 21:14:22 10° SE 21:17:44 38° ENE 21:21:10 10° N visible
25 Aug ? 22:49:02 12° SW 22:51:37 22° W 22:54:35 10° NW visible
26 Aug ? 20:55:01 10° ESE 20:58:04 25° ENE 21:01:07 10° N visible
26 Aug ? 22:29:08 15° SSW 22:31:42 35° W 22:35:06 10° NNW visible
27 Aug ? 22:09:15 18° S 22:11:49 56° W 22:15:28 10° NNW visible
28 Aug ? 21:49:22 18° SSE 21:51:59 88° ENE 21:55:42 10° NNW visible
28 Aug ? 23:25:33 10° W 23:26:20 11° W 23:27:07 10° WNW visible
29 Aug ? 21:29:29 16° SE 21:32:13 54° ENE 21:35:50 10° N visible
29 Aug ? 23:04:09 11° SW 23:06:18 16° W 23:08:43 10° NW visible
30 Aug ? 21:09:36 13° SE 21:12:30 34° ENE 21:15:52 10° N visible
30 Aug ? 22:44:16 16° SW 22:46:20 25° W 22:49:26 10° NW visible
31 Aug ? 20:49:53 10° ESE 20:52:50 23° ENE 20:55:47 10° N visible
31 Aug ? 22:24:22 21° SSW 22:26:24 39° W 22:29:54 10° NNW visible
